Location: Rometta
(44.2000°N, 10.0500°E)
Time: 22:16:54
(UTC+00:00)

Cosmos 2026 Rocket - Pass Details

Date: 20 January 2021
Orbit: 940 x 1000 km, 82.9° (Epoch: 03 March)

Event Time Altitude Azimuth Distance (km) Brightness Sun altitude
Rises 17:46:10 0° 162° (SSE) 3,597 6.9 -16.4°
Reaches altitude 10° 17:48:47 10° 154° (SSE) 2,662 6.1 -16.9°
Maximum altitude 17:54:19 39° 88° (E) 1,410 4.3 -17.8°
Drops below altitude 10° 17:59:58 10° 22° (NNE) 2,712 6.0 -18.8°
Sets 18:02:39 0° 15° (NNE) 3,673 6.8 -19.3°
